ニート彗星

312P/NEAT (2020)

English version
Home page
Updated on February 21, 2021

---------------------------------------------------------------------

・ プロフィール

・ 写真集

・ 軌道要素

Epoch 2020 Sept. 28.0 TT = JDT 2459120.5
T 2020 Sept. 24.98731 TT                                Rudenko
q   1.9832439            (2000.0)            P               Q
n   0.15271108     Peri.  207.52780     +0.97499110     +0.10553734
a   3.4664826      Node   144.66971     -0.08276413     +0.98917456
e   0.4278800      Incl.   19.76825     -0.20625823     +0.10195857
P   6.45
From 161 observations 2001 Aug. 18-2021 Jan. 7, mean residual 0".4.

・ 光度変化

        m1 = 15.5 + 5 logΔ + 10.0 log r

---------------------------------------------------------------------

軌道要素はM.P.E.C. 2021-B143に掲載されたものです。
光度グラフはComet for Windowsで作成したものです。

---------------------------------------------------------------------

Copyright(C) Seiichi Yoshida (comet@aerith.net). All rights reserved.